This is the latest recevied weather packets stored in our database for station/object IK4NOW-13. If no packets are shown the sender has not sent any weather packets the latest 10 day(s).
| Time | Temp. | Humidity | Pressure | Rain* | Wind** | Luminosity | Snow |
|---|---|---|---|---|---|---|---|
| 1777650642 | 17.78° C | 46% | 1026.5 hPa | - | - | - | - |
| 1777647937 | 18.33° C | 47% | 1027 hPa | - | - | - | - |
| 1777645232 | 18.33° C | 47% | 1027 hPa | - | - | - | - |
| 1777642528 | 18.33° C | 48% | 1027.4 hPa | - | - | - | - |
| 1777639823 | 17.78° C | 48% | 1027.7 hPa | - | - | - | - |
| 1777637118 | 17.22° C | 49% | 1027.9 hPa | - | - | - | - |
| 1777634413 | 17.22° C | 50% | 1028.2 hPa | - | - | - | - |
| 1777631708 | 16.67° C | 50% | 1028.4 hPa | - | - | - | - |
| 1777629004 | 16.67° C | 52% | 1028.6 hPa | - | - | - | - |
| 1777626299 | 16.67° C | 54% | 1028.5 hPa | - | - | - | - |
| 1777623594 | 16.67° C | 56% | 1028.4 hPa | - | - | - | - |
| 1777620890 | 15.56° C | 60% | 1028.3 hPa | - | - | - | - |
| 1777618185 | 15° C | 63% | 1028.2 hPa | - | - | - | - |
| 1777615480 | 10.56° C | 67% | 1028 hPa | - | - | - | - |
| 1777612775 | 6.67° C | 63% | 1027.7 hPa | - | - | - | - |
| 1777610071 | 5.56° C | 63% | 1027.5 hPa | - | - | - | - |
| 1777607366 | 5.56° C | 63% | 1027 hPa | - | - | - | - |
| 1777604661 | 6.11° C | 62% | 1027.1 hPa | - | - | - | - |
| 1777601957 | 6.67° C | 62% | 1027.2 hPa | - | - | - | - |
| 1777599252 | 6.67° C | 62% | 1027.2 hPa | - | - | - | - |
| 1777596547 | 7.78° C | 61% | 1027.2 hPa | - | - | - | - |
| 1777593843 | 7.78° C | 60% | 1027.4 hPa | - | - | - | - |
| 1777591138 | 8.33° C | 60% | 1027.3 hPa | - | - | - | - |
| 1777588433 | 8.89° C | 59% | 1027.1 hPa | - | - | - | - |
| 1777585728 | 9.44° C | 59% | 1026.7 hPa | - | - | - | - |
* Rain since midnight (hover to see other rain measurements)
** Current wind speed in m/s (hover to see current wind gust speed)